IZ6UQU-13 Weather Reports


time (UTC)temp
C
wind
direction
speed
KPH
gust
KPH
rain 1hr
cm
rain 24hr
cm
rain mn
cm
humidity
%
barometer
mb
20260507123503 21 59 3.2 9.7 0.00 0.20 0.00 55 954.5
20260507123004 21 82 4.8 9.7 0.00 0.20 0.00 56 954.5
20260507122504 21 87 4.8 8.0 0.00 0.20 0.00 53 954.6
20260507122004 21 188 1.6 6.4 0.00 0.20 0.00 53 954.6
20260507121504 21 57 3.2 12.9 0.00 0.20 0.00 55 954.7
20260507121004 21 86 4.8 12.9 0.00 0.20 0.00 53 954.6
20260507120504 21 64 6.4 12.9 0.00 0.20 0.00 54 954.7
20260507120005 21 93 8.0 12.9 0.00 0.20 0.00 54 954.7
20260507115504 21 44 0.0 11.3 0.00 0.20 0.00 54 954.7
20260507115004 21 14 4.8 11.3 0.00 0.20 0.00 55 954.8
20260507114504 21 88 3.2 9.7 0.00 0.20 0.00 56 954.8
20260507114004 20 16 3.2 8.0 0.00 0.20 0.00 57 954.8
20260507113504 20 293 3.2 9.7 0.00 0.20 0.00 55 954.9
20260507113005 20 136 0.0 9.7 0.00 0.20 0.00 56 954.8
20260507112504 20 15 3.2 9.7 0.00 0.20 0.00 56 954.8
20260507112004 20 5 3.2 9.7 0.00 0.20 0.00 57 954.8
20260507111506 20 105 3.2 8.0 0.00 0.20 0.00 57 954.8
20260507111005 20 50 3.2 8.0 0.00 0.20 0.00 57 954.8
20260507110504 20 339 0.0 8.0 0.00 0.20 0.00 58 954.8
20260507105504 20 131 1.6 8.0 0.00 0.20 0.00 56 954.8
20260507105004 20 53 1.6 8.0 0.00 0.20 0.00 58 954.8
20260507104504 20 62 1.6 8.0 0.00 0.20 0.00 59 954.9
20260507104004 19 67 3.2 8.0 0.00 0.20 0.00 60 955.0
20260507103504 19 97 4.8 6.4 0.00 0.20 0.00 62 955.0
20260507103004 19 92 1.6 6.4 0.00 0.20 0.00 62 955.0
20260507102504 19 277 0.0 6.4 0.00 0.20 0.00 62 955.0
20260507102006 18 339 1.6 8.0 0.00 0.20 0.00 64 955.1
20260507101504 18 313 3.2 8.0 0.00 0.20 0.00 61 955.1
20260507101004 18 280 0.0 8.0 0.00 0.20 0.00 63 955.3
20260507100504 18 43 4.8 9.7 0.00 0.20 0.00 65 955.3
20260507100004 18 75 1.6 9.7 0.00 0.20 0.00 65 955.4
20260507095504 18 81 1.6 8.0 0.00 0.20 0.00 66 955.2
20260507095004 18 29 1.6 8.0 0.00 0.20 0.00 65 955.2
20260507094504 18 315 0.0 4.8 0.00 0.20 0.00 64 955.2
20260507094004 18 349 1.6 9.7 0.00 0.20 0.00 64 955.2
20260507093504 17 21 3.2 9.7 0.00 0.20 0.00 67 955.2
20260507093004 17 94 3.2 9.7 0.00 0.20 0.00 69 955.2
20260507092504 17 359 0.0 8.0 0.00 0.20 0.00 68 955.2
20260507092004 17 91 3.2 9.7 0.00 0.20 0.00 69 955.2
20260507091504 17 101 3.2 9.7 0.00 0.20 0.00 68 955.3
20260507091004 17 343 1.6 8.0 0.00 0.20 0.00 68 955.3
20260507090504 17 78 1.6 8.0 0.00 0.20 0.00 68 955.4
20260507090005 17 53 0.0 8.0 0.00 0.20 0.00 65 955.4
20260507085504 17 21 3.2 6.4 0.00 0.20 0.00 67 955.5
20260507085004 17 32 0.0 4.8 0.00 0.20 0.00 67 955.5
20260507084504 17 39 0.0 3.2 0.00 0.20 0.00 68 955.5
20260507084004 16 271 0.0 4.8 0.00 0.20 0.00 69 955.4
20260507083504 16 0 0.0 4.8 0.00 0.20 0.00 72 955.4
20260507083004 16 104 0.0 4.8 0.00 0.20 0.00 72 955.5
20260507082504 16 104 0.0 4.8 0.00 0.20 0.00 75 955.6
20260507082004 15 63 1.6 6.4 0.00 0.20 0.00 75 955.6
20260507081504 15 125 3.2 6.4 0.00 0.20 0.00 76 955.7
20260507081004 15 116 0.0 6.4 0.00 0.20 0.00 79 955.6
20260507080504 14 118 1.6 6.4 0.00 0.20 0.00 78 955.6
20260507080004 14 182 3.2 4.8 0.00 0.20 0.00 78 955.6
20260507075503 14 105 1.6 6.4 0.00 0.51 0.00 80 955.7
20260507075004 14 92 3.2 6.4 0.00 0.51 0.00 80 955.7
20260507074005 13 88 0.0 6.4 0.00 0.51 0.00 80 955.6
20260507073503 13 76 3.2 6.4 0.00 0.51 0.00 80 955.6
20260507073004 13 46 0.0 3.2 0.00 0.51 0.00 82 955.5
20260507072503 14 289 1.6 8.0 0.00 0.51 0.00 79 955.3
20260507072004 14 304 0.0 8.0 0.00 0.51 0.00 81 955.4
20260507071504 13 331 0.0 3.2 0.00 0.51 0.00 84 955.4
20260507071003 12 342 0.0 4.8 0.00 0.51 0.00 86 955.3
20260507070504 12 300 0.0 4.8 0.00 0.51 0.00 86 955.4
20260507070009 12 100 0.0 4.8 0.00 0.51 0.00 88 955.4
20260507065503 12 66 0.0 4.8 0.00 0.71 0.00 87 955.4
20260507065004 12 316 0.0 1.6 0.00 0.71 0.00 89 955.4
20260507064504 12 0 0.0 1.6 0.00 0.71 0.00 90 955.5
20260507064003 12 0 0.0 4.8 0.00 0.71 0.00 90 955.5
20260507063503 12 324 1.6 4.8 0.00 0.71 0.00 88 955.4
20260507063003 12 0 0.0 1.6 0.00 0.71 0.00 92 955.3
20260507062503 11 0 0.0 1.6 0.00 0.71 0.00 94 955.4
20260507062003 11 0 0.0 1.6 0.00 0.71 0.00 93 955.4
20260507061503 11 0 0.0 0.0 0.00 0.71 0.00 94 955.5
20260507061003 11 0 0.0 0.0 0.00 0.71 0.00 94 955.4
20260507060503 11 0 0.0 0.0 0.00 0.71 0.00 94 955.5
20260507060003 11 0 0.0 0.0 0.00 0.71 0.00 95 955.5
20260507055503 11 0 0.0 1.6 0.00 0.79 0.00 95 955.4
20260507055003 11 0 0.0 1.6 0.00 0.79 0.00 95 955.4
20260507054503 11 0 0.0 0.0 0.00 0.79 0.00 95 955.4
20260507054003 11 0 0.0 0.0 0.00 0.79 0.00 95 955.4
20260507053004 10 0 0.0 1.6 0.00 0.79 0.00 95 955.2
20260507052503 10 222 0.0 3.2 0.00 0.79 0.00 95 955.1
20260507052003 10 0 0.0 3.2 0.00 0.79 0.00 95 955.0
20260507051503 10 196 0.0 1.6 0.00 0.79 0.00 96 955.1
20260507051003 10 0 0.0 1.6 0.00 0.79 0.00 96 955.2
20260507050503 10 126 1.6 1.6 0.00 0.79 0.00 96 955.2
20260507050003 10 85 0.0 1.6 0.00 0.79 0.00 96 955.2
20260507045503 10 334 0.0 1.6 0.00 0.79 0.00 96 955.1
20260507045003 10 0 0.0 0.0 0.00 0.79 0.00 96 955.1
20260507044503 10 0 0.0 0.0 0.00 0.79 0.00 96 955.0
20260507044003 10 0 0.0 1.6 0.00 0.79 0.00 96 955.0
20260507043503 10 0 0.0 1.6 0.00 0.79 0.00 96 955.0
20260507043003 10 101 0.0 1.6 0.00 0.79 0.00 96 954.8
20260507042503 10 0 0.0 0.0 0.00 0.79 0.00 96 954.8
20260507042003 10 0 0.0 0.0 0.00 0.79 0.00 96 954.8
20260507041503 10 0 0.0 0.0 0.00 0.79 0.00 96 954.8
20260507041003 10 0 0.0 4.8 0.00 0.79 0.00 96 954.9
20260507040503 10 0 0.0 4.8 0.00 0.79 0.00 96 954.8
20260507040003 10 96 1.6 4.8 0.00 0.79 0.00 96 954.7
20260507035503 10 0 0.0 3.2 0.00 0.99 0.00 96 954.8
20260507035003 10 82 0.0 3.2 0.10 0.99 0.00 96 954.8
20260507034503 10 115 0.0 3.2 0.10 0.99 0.00 96 954.7
20260507034003 10 340 0.0 1.6 0.10 0.99 0.00 95 954.7
20260507033503 10 46 0.0 1.6 0.10 0.99 0.00 95 954.7
20260507033003 10 0 0.0 1.6 0.10 0.99 0.00 95 954.7
20260507032503 10 79 0.0 1.6 0.20 0.99 0.00 95 954.6
20260507032003 10 0 0.0 0.0 0.20 0.99 0.00 95 954.7
20260507031503 10 0 0.0 0.0 0.20 0.99 0.00 95 954.7
20260507031003 10 0 0.0 0.0 0.20 0.99 0.00 94 954.7
20260507030503 10 0 0.0 0.0 0.20 0.99 0.00 94 954.6
20260507025503 10 0 0.0 3.2 0.20 1.40 0.00 94 954.6
20260507025003 10 92 0.0 3.2 0.10 1.30 0.00 93 954.6
20260507024503 10 97 0.0 1.6 0.10 1.30 0.00 93 954.6
20260507024003 10 67 0.0 1.6 0.10 1.30 0.00 92 954.6
20260507023503 10 95 0.0 1.6 0.10 1.30 0.00 92 954.7
20260507023003 11 97 0.0 3.2 0.10 1.30 0.00 91 954.6
20260507022503 11 137 0.0 6.4 0.00 1.19 0.00 91 954.7
20260507022003 11 135 3.2 6.4 0.00 1.19 0.00 90 954.7
20260507021503 11 143 0.0 1.6 0.00 1.19 0.00 89 954.7
20260507021003 11 0 0.0 6.4 0.00 1.19 0.00 90 954.8
20260507020503 11 111 0.0 6.4 0.00 1.19 0.00 89 954.7
20260507020003 11 113 0.0 4.8 0.00 1.19 0.00 89 954.6
20260507015502 11 124 0.0 4.8 0.00 1.19 0.00 89 954.6
20260507015003 11 126 0.0 8.0 0.00 1.19 0.00 89 954.6
20260507014502 11 158 3.2 8.0 0.00 1.19 0.00 88 954.4
20260507014003 11 155 1.6 4.8 0.00 1.19 0.00 88 954.4
20260507013502 11 88 0.0 1.6 0.00 1.19 0.00 88 954.4
20260507013003 11 65 0.0 1.6 0.00 1.19 0.00 88 954.5
20260507012503 11 0 0.0 3.2 0.00 1.19 0.00 87 954.5
20260507012002 11 129 0.0 3.2 0.00 1.19 0.00 87 954.4
20260507011502 11 154 1.6 3.2 0.00 1.19 0.00 87 954.4
20260507011002 11 161 0.0 3.2 0.00 1.19 0.00 88 954.4
20260507010502 11 175 1.6 4.8 0.00 1.19 0.00 88 954.4
20260507010002 11 186 3.2 4.8 0.00 1.19 0.00 88 954.6
20260507005502 11 94 0.0 1.6 0.00 1.19 0.00 88 954.7
20260507005002 11 147 0.0 3.2 0.00 1.19 0.00 88 954.7
20260507004502 11 127 0.0 4.8 0.00 1.19 0.00 87 954.7
20260507004002 11 191 1.6 4.8 0.00 1.19 0.00 88 954.6
20260507003502 11 0 0.0 1.6 0.00 1.19 0.00 88 954.5
20260507003002 11 0 0.0 4.8 0.00 1.19 0.00 88 954.4
20260507002502 11 236 0.0 4.8 0.00 1.19 0.00 87 954.4
20260507002002 11 248 1.6 4.8 0.00 1.19 0.00 87 954.4
20260507001502 11 190 0.0 4.8 0.00 1.19 0.00 87 954.4
20260507001002 11 207 0.0 3.2 0.00 1.19 0.00 86 954.6
20260507000502 11 211 1.6 3.2 0.00 1.19 0.00 87 954.7
20260507000003 11 187 0.0 4.8 0.00 1.19 0.00 88 954.8
20260506235502 11 180 0.0 4.8 0.00 1.19 0.00 87 954.8
20260506235002 11 88 1.6 4.8 0.00 1.19 0.00 88 954.9
20260506234502 11 166 1.6 4.8 0.00 1.19 0.00 87 954.9
20260506234002 11 149 3.2 4.8 0.00 1.19 0.00 88 954.9
20260506233502 11 157 3.2 4.8 0.00 1.19 0.00 89 954.9
20260506233002 11 0 0.0 1.6 0.00 1.19 0.00 89 955.0
20260506232502 11 0 0.0 1.6 0.00 1.19 0.00 88 954.9
20260506232002 11 0 0.0 3.2 0.00 1.19 0.00 88 954.9
20260506231502 11 126 0.0 3.2 0.00 1.19 0.00 88 954.9
20260506231002 11 270 0.0 1.6 0.00 1.19 0.00 87 955.0
20260506230502 11 0 0.0 1.6 0.00 1.19 0.00 87 955.0
20260506230004 11 270 0.0 1.6 0.00 1.19 0.00 86 954.9
20260506225502 11 0 0.0 1.6 0.00 1.19 0.00 84 954.9
20260506225002 12 0 0.0 1.6 0.00 1.19 0.00 84 955.0
20260506224502 12 0 0.0 1.6 0.00 1.19 0.00 83 955.0
20260506224002 12 0 0.0 0.0 0.00 1.19 0.00 83 955.1
20260506223502 12 0 0.0 1.6 0.00 1.19 0.00 84 955.1
20260506223002 12 0 0.0 1.6 0.00 1.19 0.00 82 955.1
20260506222502 12 0 0.0 0.0 0.00 1.19 0.00 82 955.2
20260506222002 12 0 0.0 4.8 0.00 1.19 0.00 81 955.2
20260506221502 12 0 0.0 8.0 0.00 1.19 0.00 82 955.1
20260506221002 12 0 0.0 8.0 0.00 1.19 0.00 81 955.2
20260506220502 12 206 4.8 8.0 0.00 1.19 0.00 83 955.2
20260506220002 12 243 4.8 8.0 0.00 1.19 0.00 84 955.2
20260506215502 12 174 3.2 6.4 0.00 1.19 0.00 84 955.3
20260506215002 12 194 4.8 6.4 0.00 1.19 0.00 84 955.3
20260506214502 12 204 3.2 6.4 0.00 1.19 0.00 81 955.3
20260506214002 12 218 0.0 4.8 0.00 1.19 0.00 80 955.3
20260506213502 12 290 0.0 4.8 0.00 1.19 0.00 79 955.4
20260506213002 12 352 0.0 8.0 0.00 1.19 0.00 78 955.4
20260506212502 12 244 0.0 12.9 0.00 1.19 0.00 78 955.3
20260506212002 12 31 3.2 12.9 0.00 1.19 0.00 79 955.4
20260506211502 12 64 1.6 6.4 0.00 1.19 0.00 85 955.4
20260506211002 12 0 0.0 3.2 0.00 1.19 0.00 86 955.4
20260506210502 12 281 0.0 3.2 0.00 1.19 0.00 85 955.4
20260506210002 12 0 0.0 3.2 0.00 1.19 0.00 84 955.4
20260506205502 12 0 0.0 4.8 0.00 1.19 0.00 84 955.4
20260506205002 12 202 3.2 4.8 0.00 1.19 0.00 84 955.4
20260506204502 12 285 0.0 1.6 0.00 1.19 0.00 82 955.3
20260506204002 12 0 0.0 3.2 0.00 1.19 0.00 81 955.4
20260506203502 13 287 0.0 3.2 0.00 1.19 0.00 80 955.5
20260506203002 13 0 0.0 1.6 0.00 1.19 0.00 80 955.4
20260506202502 13 0 0.0 6.4 0.00 1.19 0.00 79 955.5
20260506202002 13 62 1.6 6.4 0.00 1.19 0.00 78 955.5
20260506201502 13 0 0.0 4.8 0.00 1.19 0.00 78 955.5
20260506201002 13 271 0.0 4.8 0.00 1.19 0.00 78 955.5
20260506200502 13 0 0.0 3.2 0.00 1.19 0.00 81 955.4
20260506200002 13 0 0.0 3.2 0.00 1.19 0.00 82 955.4
20260506195502 13 264 0.0 1.6 0.00 1.19 0.00 82 955.4
20260506195002 13 0 0.0 4.8 0.00 1.19 0.00 82 955.4
20260506194502 13 264 0.0 4.8 0.00 1.19 0.00 80 955.3
20260506194002 13 251 3.2 6.4 0.00 1.19 0.00 81 955.4
20260506193502 13 185 3.2 6.4 0.00 1.19 0.00 81 955.3
20260506193002 13 185 4.8 6.4 0.00 1.19 0.00 80 955.2
20260506192502 13 226 0.0 3.2 0.00 1.19 0.00 78 955.2
20260506192002 13 308 0.0 1.6 0.00 1.19 0.00 78 955.2
20260506191502 13 357 0.0 1.6 0.00 1.19 0.00 78 955.1
20260506191002 13 358 0.0 6.4 0.00 1.19 0.00 79 955.2
20260506190502 13 310 0.0 6.4 0.00 1.19 0.00 78 955.1
20260506190002 13 0 0.0 1.6 0.00 1.19 0.00 79 955.0
20260506185502 13 319 0.0 1.6 0.00 1.19 0.00 79 954.9
20260506185002 13 0 0.0 3.2 0.00 1.19 0.00 79 954.8
20260506184502 13 0 0.0 3.2 0.00 1.19 0.00 78 954.7
20260506184002 13 306 0.0 3.2 0.00 1.19 0.00 78 954.6
20260506183502 14 0 0.0 6.4 0.00 1.19 0.00 77 954.6
20260506183002 14 359 0.0 6.4 0.00 1.19 0.00 77 954.7
20260506182502 14 332 1.6 4.8 0.00 1.19 0.00 76 954.7
20260506182002 14 360 3.2 6.4 0.00 1.19 0.00 77 954.7
20260506181502 14 324 0.0 6.4 0.00 1.19 0.00 76 954.7
20260506181002 14 11 0.0 3.2 0.00 1.19 0.00 77 954.7
20260506180502 15 17 1.6 4.8 0.00 1.19 0.00 76 954.6
20260506180002 15 357 1.6 4.8 0.00 1.19 0.00 75 954.6
20260506175502 15 109 0.0 4.8 0.00 1.19 0.00 74 954.5
20260506175002 15 75 0.0 6.4 0.00 1.19 0.00 74 954.5
20260506174502 15 61 1.6 6.4 0.00 1.19 0.00 74 954.5
20260506173502 15 347 0.0 1.6 0.00 1.19 0.00 74 954.4
20260506173002 15 102 0.0 1.6 0.00 1.19 0.00 73 954.4
20260506172502 15 0 0.0 0.0 0.00 1.19 0.00 73 954.3
20260506172002 15 0 0.0 0.0 0.00 1.19 0.00 73 954.2
20260506171502 15 0 0.0 0.0 0.00 1.19 0.00 74 954.2
20260506171002 15 0 0.0 0.0 0.00 1.19 0.00 72 954.3
20260506170502 16 0 0.0 0.0 0.00 1.19 0.00 72 954.3
20260506170002 16 0 0.0 0.0 0.00 1.19 0.00 72 954.3
20260506165501 15 0 0.0 1.6 0.00 1.19 0.00 72 954.2
20260506165002 15 0 0.0 1.6 0.00 1.19 0.00 71 954.2
20260506164502 15 0 0.0 4.8 0.00 1.19 0.00 71 954.2
20260506164001 16 337 1.6 4.8 0.00 1.19 0.00 71 954.3
20260506163501 16 0 0.0 6.4 0.00 1.19 0.00 72 954.3
20260506163002 16 60 1.6 6.4 0.00 1.19 0.00 71 954.3
20260506162501 16 55 0.0 3.2 0.00 1.19 0.00 72 954.3
20260506162001 16 118 0.0 8.0 0.00 1.19 0.00 72 954.3
20260506161501 16 62 3.2 8.0 0.00 1.19 0.00 71 954.3
20260506161001 16 74 0.0 4.8 0.00 1.19 0.00 72 954.3
20260506160501 16 58 1.6 6.4 0.00 1.19 0.00 71 954.4
20260506160001 16 78 4.8 6.4 0.00 1.19 0.00 71 954.5
20260506155501 16 63 1.6 4.8 0.00 1.19 0.00 72 954.5
20260506155001 16 109 0.0 6.4 0.00 1.19 0.00 72 954.5
20260506154501 16 85 1.6 9.7 0.00 1.19 0.00 71 954.5
20260506154001 16 90 3.2 9.7 0.00 1.19 0.00 70 954.5
20260506153501 16 77 1.6 9.7 0.00 1.19 0.00 72 954.5
20260506153001 16 91 1.6 12.9 0.00 1.19 0.00 71 954.6
20260506152501 16 84 8.0 12.9 0.00 1.19 0.00 69 954.6
20260506152001 16 85 6.4 8.0 0.00 1.19 0.00 69 954.5
20260506151501 16 94 3.2 9.7 0.00 1.19 0.00 68 954.4
20260506151001 16 93 4.8 12.9 0.00 1.19 0.00 69 954.4
20260506150501 17 87 4.8 14.5 0.00 1.19 0.00 69 954.5
20260506150002 17 99 4.8 14.5 0.00 1.19 0.00 69 954.5
20260506145501 17 87 4.8 11.3 0.00 1.19 0.00 69 954.4
20260506145001 17 96 4.8 12.9 0.00 1.19 0.00 69 954.4
20260506144501 17 98 3.2 12.9 0.00 1.19 0.00 69 954.4
20260506144001 17 94 8.0 16.1 0.00 1.19 0.00 68 954.5
20260506143501 17 96 6.4 17.7 0.00 1.19 0.00 68 954.5
20260506143001 17 87 6.4 17.7 0.00 1.19 0.00 68 954.4
20260506142501 17 101 6.4 14.5 0.00 1.19 0.00 67 954.4
20260506142001 17 106 3.2 12.9 0.00 1.19 0.00 68 954.3
20260506141501 17 95 4.8 12.9 0.00 1.19 0.00 68 954.4
20260506141001 17 89 6.4 14.5 0.00 1.19 0.00 69 954.3
20260506140501 17 94 4.8 19.3 0.00 1.19 0.00 70 954.4
20260506140002 17 87 6.4 19.3 0.00 1.19 0.00 70 954.3
20260506135502 17 95 6.4 11.3 0.00 1.19 0.00 71 954.4
20260506135002 17 96 4.8 12.9 0.00 1.19 0.00 71 954.4
20260506134502 17 113 3.2 12.9 0.00 1.19 0.00 70 954.3
20260506134002 17 89 1.6 9.7 0.00 1.19 0.00 70 954.4
20260506133502 17 115 6.4 9.7 0.00 1.19 0.00 68 954.4
20260506132502 18 104 3.2 9.7 0.00 1.19 0.00 69 954.5
20260506132002 18 92 6.4 9.7 0.00 1.19 0.00 68 954.5
20260506131502 18 81 3.2 9.7 0.00 1.19 0.00 68 954.7
20260506131002 18 81 1.6 8.0 0.00 1.19 0.00 67 954.6
20260506130502 18 82 3.2 8.0 0.00 1.19 0.00 68 954.6
20260506130002 18 100 3.2 6.4 0.00 1.19 0.00 70 954.7
20260506125502 17 113 1.6 8.0 0.00 1.19 0.00 67 954.7
20260506125002 18 113 0.0 8.0 0.00 1.19 0.00 66 954.8
20260506124502 18 46 4.8 8.0 0.00 1.19 0.00 66 954.8
20260506124002 18 358 0.0 6.4 0.00 1.19 0.00 66 954.8